Weather History for Central Park, NY

Change the Weather History Date:

Monday, December 24, 2012

  Actual Average Record
Temperature  
Mean Temperature 37 °F 35 °F  
Max Temperature 40 °F 41 °F 63 °F (1996)
Min Temperature 33 °F 30 °F 6 °F (1983)
Degree Days  
Heating Degree Days 28 30  
Month to date heating degree days 500 635  
Since 1 July heating degree days 1371 1468  
Cooling Degree Days 0 0  
Month to date cooling degree days 0 0  
Year to date cooling degree days 1277 1105  
Moisture  
Dew Point 24 °F    
Average Humidity 74    
Maximum Humidity 100    
Minimum Humidity 47    
Precipitation  
Precipitation 0.07 in 0.13 in 1.42 in (2003)
Month to date precipitation 2.87 3.17  
Year to date precipitation 36.58 49.11  
Snow  
Snow T in 0.20 in 11.40 in (1912)
Month to date snowfall T 3.3  
Since 1 July snowfall 4.7 3.6  
Snow Depth 0.00 in    
Sea Level Pressure  
Sea Level Pressure 30.02 in    
Wind  
Wind Speed 4 mph (NNW)    
Max Wind Speed 12 mph    
Max Gust Speed 17 mph    
Visibility 8 miles    
Events Snow    
T = Trace of Precipitation, MM = Missing Value Source: NWS Daily Summary

Daily Weather History Graph

Daily Weather History Graph

Search for Another Location

Airport:

Trip Planner

Search our weather history database for the weather conditions in past years. The results will help you decide how hot, cold, wet, or windy it might be!

Date:

Astronomy

Dec. 24, 2012 Rise Set
Actual Time 7:18 AM EST 4:33 PM EST
Civil Twilight 6:47 AM EST 5:04 PM EST
Nautical Twilight 6:12 AM EST 5:38 PM EST
Astronomical Twilight 5:39 AM EST 6:12 PM EST
Moon 1:59 PM EST (12/24) 3:53 AM EST (12/24)
Length of Visible Light 10h 17m
Length of Day
9h 15m
Waxing Gibbous, 88% of the Moon is Illuminated
Dec 24
Waxing Gibbous
Dec 28
Full
Jan 4
Last Quarter
Jan 11
New
Jan 18
First Quarter

Hourly Weather History & Observations

Time (EST) Temp. Windchill Dew Point Humidity Pressure Visibility Wind Dir Wind Speed Gust Speed Precip Events Conditions
12:51 AM 36.0 °F 31.1 °F 19.0 °F 50% 29.96 in 10.0 mi West 5.8 mph 17.3 mph N/A   Clear
1:51 AM 36.0 °F 32.1 °F 18.0 °F 48% 29.98 in 10.0 mi WNW 4.6 mph - N/A   Clear
2:51 AM 35.1 °F 32.2 °F 19.0 °F 52% 29.99 in 10.0 mi Variable 3.5 mph - N/A   Clear
3:51 AM 35.1 °F 32.2 °F 19.0 °F 52% 29.99 in 10.0 mi Variable 3.5 mph - N/A   Clear
4:51 AM 34.0 °F 29.8 °F 19.0 °F 54% 29.99 in 10.0 mi West 4.6 mph - N/A   Clear
5:51 AM 34.0 °F - 19.0 °F 54% 30.02 in 10.0 mi Calm Calm - N/A   Clear
6:51 AM 34.0 °F 29.8 °F 19.9 °F 56% 30.04 in 10.0 mi West 4.6 mph - N/A   Clear
7:51 AM 34.0 °F 29.8 °F 19.9 °F 56% 30.06 in 10.0 mi WNW 4.6 mph - N/A   Clear
8:51 AM 35.1 °F 31.0 °F 19.9 °F 54% 30.08 in 10.0 mi West 4.6 mph - N/A   Clear
9:51 AM 36.0 °F 31.1 °F 19.9 °F 52% 30.09 in 10.0 mi Variable 5.8 mph - N/A   Clear
10:51 AM 37.0 °F - 19.9 °F 50% 30.07 in 10.0 mi Calm Calm - N/A   Clear
11:51 AM 37.9 °F 34.4 °F 19.9 °F 48% 30.06 in 10.0 mi NE 4.6 mph - N/A   Clear
12:51 PM 37.9 °F 35.5 °F 21.0 °F 51% 30.04 in 10.0 mi Variable 3.5 mph - N/A   Clear
1:51 PM 39.0 °F 36.8 °F 21.0 °F 49% 30.05 in 10.0 mi Variable 3.5 mph - N/A   Clear
2:51 PM 39.0 °F 36.8 °F 21.0 °F 49% 30.04 in 10.0 mi Variable 3.5 mph - N/A   Clear
3:51 PM 37.9 °F 35.5 °F 21.0 °F 51% 30.04 in 10.0 mi Variable 3.5 mph - N/A   Clear
4:51 PM 37.9 °F - 21.9 °F 53% 30.02 in 10.0 mi Calm Calm - N/A   Clear
5:51 PM 39.0 °F - 23.0 °F 53% 30.02 in 10.0 mi Calm Calm - N/A   Partly Cloudy
6:51 PM 37.9 °F 32.7 °F 24.1 °F 57% 30.02 in 10.0 mi South 6.9 mph - N/A   Overcast
7:30 PM 35.1 °F - 30.0 °F 82% 30.04 in 3.0 mi Calm Calm - 0.01 in Snow Light Snow
7:45 PM 33.8 °F - 30.2 °F 87% 30.03 in 2.5 mi Calm Calm - 0.01 in Snow Light Snow
7:51 PM 34.0 °F - 30.9 °F 89% 30.01 in 3.0 mi Calm Calm - 0.02 in Snow Light Snow
8:01 PM 34.0 °F 29.8 °F 30.9 °F 89% 30.03 in 2.5 mi Variable 4.6 mph - 0.00 in Snow Light Snow
8:09 PM 34.0 °F 31.0 °F 32.0 °F 92% 30.02 in 3.0 mi Variable 3.5 mph - 0.01 in Snow Light Snow
8:31 PM 34.0 °F 29.8 °F 32.0 °F 92% 30.01 in 2.5 mi ESE 4.6 mph - 0.01 in Snow Light Snow
8:51 PM 33.1 °F 28.7 °F 32.0 °F 96% 29.99 in 2.5 mi Variable 4.6 mph - 0.02 in Snow Light Snow
9:51 PM 34.0 °F 28.8 °F 32.0 °F 92% 29.96 in 2.5 mi ENE 5.8 mph - 0.02 in   Overcast
10:04 PM 33.1 °F 26.9 °F 32.0 °F 96% 29.98 in 3.0 mi ENE 6.9 mph - 0.01 in   Overcast
10:51 PM 34.0 °F 31.0 °F 33.1 °F 96% 29.96 in 5.0 mi NE 3.5 mph - 0.01 in   Overcast
11:51 PM 35.1 °F 30.1 °F 34.0 °F 96% 29.94 in 4.0 mi NE 5.8 mph - 0.00 in   Overcast